Overview Statistics Trail Chart Weather Telemetry Raw packets
 

This is the latest recevied weather packets stored in our database for station/object KC9DRE. If no packets are shown the sender has not sent any weather packets the latest 10 day(s).

<< 59 60 61 62 63 64 65 >>
Time Temp. Humidity Pressure Rain* Wind** Luminosity Snow
1777528421 8.89° C 76% 1016.3 hPa 0 mm - 0 W/m² -
1777528119 8.89° C 76% 1016.5 hPa 0 mm - 0 W/m² -
1777527816 8.89° C 76% 1016.4 hPa 0 mm - 0 W/m² -
1777527511 8.33° C 78% 1016.6 hPa 0 mm - 0 W/m² -
1777527207 8.33° C 83% 1016.4 hPa 0 mm - 0 W/m² -
1777526903 7.78° C 87% 1016.5 hPa 0 mm - 0 W/m² -
1777526599 7.78° C 87% 1016.3 hPa 0 mm - 0 W/m² -
1777526298 7.78° C 87% 1016.4 hPa 0 mm - 0 W/m² -
1777525995 7.78° C 86% 1016.4 hPa 0 mm - 0 W/m² -
1777525692 8.33° C 85% 1016.4 hPa 0 mm - 0 W/m² -
1777525390 8.33° C 84% 1016.5 hPa 0 mm - 0 W/m² -
1777525085 8.89° C 82% 1016.4 hPa 0 mm - 0 W/m² -
1777524782 8.89° C 81% 1016.4 hPa 0 mm - 0 W/m² -
1777524480 9.44° C 81% 1016.5 hPa 0 mm - 0 W/m² -
1777524177 9.44° C 78% 1016.4 hPa 0 mm - 0 W/m² -
1777523873 10° C 77% 1016.2 hPa 0 mm - 0 W/m² -
1777523570 10° C 77% 1016.2 hPa 0 mm - 0 W/m² -
1777523266 10° C 76% 1016.2 hPa 0 mm - 0 W/m² -
1777522961 10.56° C 76% 1015.9 hPa 0 mm - 0 W/m² -
1777522659 10.56° C 74% 1016.1 hPa 0 mm - 0 W/m² -
1777522355 10.56° C 74% 1015.8 hPa 0 mm - 0 W/m² -
1777522052 10.56° C 73% 1015.8 hPa 0 mm - 0 W/m² -
1777521749 10.56° C 75% 1016.1 hPa 0 mm - 0 W/m² -
1777521446 10.56° C 75% 1016.3 hPa 0 mm - 0 W/m² -
1777521143 10.56° C 76% 1016.1 hPa 0 mm - 0 W/m² -

* Rain latest hour (hover to see other rain measurements)
** Current wind speed in m/s (hover to see current wind gust speed)